When you browse on this site, cookies collect data to enhance your experience and personalize the content and advertising you see.
Visit our Privacy Policy to learn more. By continuing to use the site, you agree to this use of cookies and data.
  • In Schweiz
  • Länderverzeichnis
  • Für 7 Tage
  • Wassertemperatur
  • Wetterkarte
  • Widgets
  • user-avatar
    Anmelden

    Stündliche Wetter Puzovo

    Heute, 6 Dezember, Freitag

    Zeit Temperatur Niederschläge Wind Luftdruck Luftfeuchtigkeit
    00:00 -2°C° 0 mm 5 m/S 742 mmHg 87%
    01:00 -4°C° 0 mm 5 m/S 742 mmHg 86%
    02:00 -4°C° 0 mm 5 m/S 742 mmHg 86%
    03:00 -4°C° 0 mm 5 m/S 742 mmHg 85%
    04:00 -4°C° 0 mm 5 m/S 741 mmHg 84%
    05:00 -4°C° 0 mm 5 m/S 741 mmHg 83%
    06:00 -4°C° 0 mm 5 m/S 741 mmHg 83%
    07:00 -5°C° 0 mm 5 m/S 741 mmHg 83%
    08:00 -5°C° 0 mm 5 m/S 741 mmHg 83%
    09:00 -4°C° 0 mm 5 m/S 741 mmHg 81%
    10:00 -4°C° 0 mm 6 m/S 740 mmHg 80%
    11:00 -4°C° 0 mm 6 m/S 740 mmHg 79%
    12:00 -3°C° 0 mm 6 m/S 740 mmHg 78%
    13:00 -3°C° 0 mm 6 m/S 739 mmHg 77%
    14:00 -3°C° 0 mm 6 m/S 739 mmHg 76%
    15:00 -3°C° 0 mm 6 m/S 739 mmHg 77%
    16:00 -4°C° 0 mm 6 m/S 738 mmHg 77%
    17:00 -4°C° 0 mm 6 m/S 738 mmHg 78%
    18:00 -4°C° 0 mm 6 m/S 738 mmHg 78%
    19:00 -4°C° 0 mm 6 m/S 739 mmHg 77%
    20:00 -4°C° 0 mm 5 m/S 739 mmHg 77%
    21:00 -4°C° 0 mm 5 m/S 739 mmHg 77%
    22:00 -4°C° 0 mm 5 m/S 738 mmHg 78%
    23:00 -4°C° 0 mm 5 m/S 738 mmHg 78%

    Morgen, 7 Dezember, Samstag

    Zeit Temperatur Niederschläge Wind Luftdruck Luftfeuchtigkeit
    00:00 -4°C° 0 mm 5 m/S 738 mmHg 79%
    01:00 -4°C° 0 mm 5 m/S 739 mmHg 80%
    02:00 -4°C° 0 mm 5 m/S 739 mmHg 81%
    03:00 -4°C° 0 mm 5 m/S 738 mmHg 81%
    04:00 -4°C° 0 mm 5 m/S 738 mmHg 81%
    05:00 -4°C° 0 mm 5 m/S 738 mmHg 82%
    06:00 -4°C° 0 mm 5 m/S 738 mmHg 83%
    07:00 -4°C° 0 mm 4 m/S 738 mmHg 83%
    08:00 -4°C° 0 mm 4 m/S 738 mmHg 84%
    09:00 -4°C° 0 mm 5 m/S 738 mmHg 83%
    10:00 -4°C° 0 mm 5 m/S 738 mmHg 82%
    11:00 -4°C° 0 mm 5 m/S 737 mmHg 81%
    12:00 -4°C° 0 mm 5 m/S 737 mmHg 80%
    13:00 -2°C° 0 mm 5 m/S 737 mmHg 79%
    14:00 -2°C° 0 mm 5 m/S 736 mmHg 77%
    15:00 -2°C° 0 mm 5 m/S 736 mmHg 77%
    16:00 -2°C° 0 mm 5 m/S 736 mmHg 77%
    17:00 -2°C° 0 mm 5 m/S 735 mmHg 77%
    18:00 -4°C° 0 mm 5 m/S 735 mmHg 79%
    19:00 -4°C° 0 mm 5 m/S 735 mmHg 81%
    20:00 -4°C° 0 mm 5 m/S 735 mmHg 82%
    21:00 -4°C° 0 mm 5 m/S 735 mmHg 83%
    22:00 -4°C° 0 mm 5 m/S 734 mmHg 84%
    23:00 -4°C° 0 mm 5 m/S 734 mmHg 84%

    übermorgen, 8 Dezember, Sonntag

    Zeit Temperatur Niederschläge Wind Luftdruck Luftfeuchtigkeit
    00:00 -4°C° 0.1 mm 5 m/S 734 mmHg 86%
    01:00 -4°C° 0.1 mm 5 m/S 733 mmHg 88%
    02:00 -4°C° 0.1 mm 5 m/S 733 mmHg 90%
    03:00 -2°C° 0.1 mm 5 m/S 733 mmHg 92%
    04:00 -3°C° 0.1 mm 6 m/S 732 mmHg 94%
    05:00 -2°C° 0.1 mm 6 m/S 732 mmHg 96%
    06:00 -2°C° 0.2 mm 6 m/S 731 mmHg 96%
    07:00 -2°C° 0.2 mm 6 m/S 731 mmHg 96%
    08:00 -1°C° 0.2 mm 6 m/S 731 mmHg 95%
    09:00 -1°C° 0.4 mm 6 m/S 731 mmHg 96%
    10:00 -1°C° 0.4 mm 6 m/S 732 mmHg 96%
    11:00 -1°C° 0.4 mm 6 m/S 732 mmHg 96%
    12:00 0°C° 0 mm 5 m/S 732 mmHg 92%
    13:00 -1°C° 0 mm 5 m/S 733 mmHg 87%
    14:00 -1°C° 0 mm 5 m/S 733 mmHg 83%
    15:00 -1°C° 0.1 mm 5 m/S 733 mmHg 87%
    16:00 -1°C° 0.1 mm 5 m/S 734 mmHg 90%
    17:00 -2°C° 0.1 mm 4 m/S 734 mmHg 94%
    18:00 -2°C° 0 mm 4 m/S 735 mmHg 93%
    19:00 -2°C° 0 mm 4 m/S 735 mmHg 92%
    20:00 -1°C° 0 mm 3 m/S 736 mmHg 92%
    21:00 -1°C° 0 mm 3 m/S 736 mmHg 92%
    22:00 -1°C° 0 mm 3 m/S 735 mmHg 93%
    23:00 -2°C° 0 mm 3 m/S 735 mmHg 93%

    9 Dezember, Montag

    Zeit Temperatur Niederschläge Wind Luftdruck Luftfeuchtigkeit
    00:00 -2°C° 0 mm 4 m/S 735 mmHg 94%
    01:00 -2°C° 0 mm 4 m/S 735 mmHg 94%
    02:00 -2°C° 0 mm 5 m/S 734 mmHg 95%
    03:00 -1°C° 0.3 mm 5 m/S 734 mmHg 95%
    04:00 0°C° 0.3 mm 5 m/S 733 mmHg 95%
    05:00 0°C° 0.3 mm 5 m/S 733 mmHg 96%
    06:00 -1°C° 0.2 mm 6 m/S 733 mmHg 96%
    07:00 -1°C° 0.2 mm 6 m/S 732 mmHg 96%
    08:00 -1°C° 0.2 mm 6 m/S 732 mmHg 96%
    09:00 -1°C° 0 mm 6 m/S 732 mmHg 95%
    10:00 -1°C° 0 mm 6 m/S 732 mmHg 94%
    11:00 -1°C° 0 mm 6 m/S 731 mmHg 93%
    12:00 -1°C° 0.3 mm 6 m/S 731 mmHg 94%
    13:00 +1°C° 0.3 mm 6 m/S 731 mmHg 94%
    14:00 +1°C° 0.3 mm 6 m/S 730 mmHg 94%
    15:00 +1°C° 0.4 mm 6 m/S 730 mmHg 94%
    16:00 +1°C° 0.4 mm 6 m/S 730 mmHg 94%
    17:00 +1°C° 0.4 mm 5 m/S 730 mmHg 94%
    18:00 +1°C° 0.1 mm 5 m/S 730 mmHg 95%
    19:00 +1°C° 0.1 mm 5 m/S 730 mmHg 95%
    20:00 +1°C° 0.1 mm 4 m/S 730 mmHg 95%
    21:00 +1°C° 0.1 mm 4 m/S 731 mmHg 95%
    22:00 +1°C° 0.1 mm 4 m/S 731 mmHg 95%
    23:00 0°C° 0.1 mm 4 m/S 731 mmHg 95%

    10 Dezember, Dienstag

    Zeit Temperatur Niederschläge Wind Luftdruck Luftfeuchtigkeit
    00:00 +1°C° 0 mm 3 m/S 731 mmHg 96%
    01:00 +1°C° 0 mm 3 m/S 731 mmHg 96%
    02:00 +1°C° 0 mm 3 m/S 731 mmHg 97%
    03:00 0°C° 0 mm 3 m/S 731 mmHg 97%
    04:00 +1°C° 0 mm 2 m/S 732 mmHg 97%
    05:00 +1°C° 0 mm 2 m/S 732 mmHg 97%
    06:00 +1°C° 0 mm 2 m/S 732 mmHg 97%
    07:00 +1°C° 0 mm 2 m/S 732 mmHg 97%
    08:00 0°C° 0 mm 3 m/S 732 mmHg 97%
    09:00 +1°C° 0 mm 3 m/S 732 mmHg 97%
    10:00 +2°C° 0 mm 2 m/S 732 mmHg 97%
    11:00 +2°C° 0 mm 2 m/S 732 mmHg 97%
    12:00 +2°C° 0 mm 2 m/S 732 mmHg 97%
    13:00 +2°C° 0 mm 2 m/S 732 mmHg 97%
    14:00 +2°C° 0 mm 2 m/S 731 mmHg 98%
    15:00 +2°C° 0 mm 2 m/S 732 mmHg 98%
    16:00 +1°C° 0 mm 2 m/S 732 mmHg 98%
    17:00 +1°C° 0 mm 2 m/S 732 mmHg 98%
    18:00 +1°C° 0.2 mm 2 m/S 732 mmHg 98%
    19:00 +1°C° 0.2 mm 2 m/S 732 mmHg 98%
    20:00 +1°C° 0.2 mm 2 m/S 732 mmHg 98%
    21:00 +1°C° 0.1 mm 2 m/S 732 mmHg 98%
    22:00 +1°C° 0.1 mm 2 m/S 733 mmHg 98%
    23:00 +1°C° 0.1 mm 2 m/S 733 mmHg 98%

    11 Dezember, Mittwoch

    Zeit Temperatur Niederschläge Wind Luftdruck Luftfeuchtigkeit
    00:00 0°C° 0.2 mm 3 m/S 734 mmHg 97%
    01:00 -1°C° 0.2 mm 3 m/S 734 mmHg 97%
    02:00 -2°C° 0.2 mm 4 m/S 735 mmHg 96%
    03:00 -3°C° 0.1 mm 4 m/S 735 mmHg 93%
    04:00 -4°C° 0.1 mm 4 m/S 736 mmHg 90%
    05:00 -5°C° 0.1 mm 4 m/S 737 mmHg 86%
    06:00 -5°C° 0 mm 4 m/S 737 mmHg 85%
    07:00 -5°C° 0 mm 3 m/S 738 mmHg 83%
    08:00 -6°C° 0 mm 3 m/S 739 mmHg 82%
    09:00 -4°C° 0 mm 2 m/S 739 mmHg 79%
    10:00 -2°C° 0 mm 1 m/S 739 mmHg 77%
    11:00 -2°C° 0 mm 1 m/S 740 mmHg 74%
    12:00 -2°C° 0 mm 1 m/S 739 mmHg 74%
    13:00 -2°C° 0 mm 1 m/S 739 mmHg 73%
    14:00 -2°C° 0 mm 1 m/S 739 mmHg 72%
    15:00 -4°C° 0 mm 2 m/S 739 mmHg 74%
    16:00 -5°C° 0 mm 3 m/S 739 mmHg 75%
    17:00 -5°C° 0 mm 3 m/S 739 mmHg 77%
    18:00 -4°C° 0 mm 4 m/S 739 mmHg 76%
    19:00 -4°C° 0 mm 4 m/S 738 mmHg 75%
    20:00 -5°C° 0 mm 5 m/S 738 mmHg 75%
    21:00 -5°C° 0.2 mm 5 m/S 738 mmHg 80%
    22:00 -5°C° 0.2 mm 5 m/S 738 mmHg 86%
    23:00 -6°C° 0.2 mm 5 m/S 737 mmHg 91%
    Mehr zeigen